Powrót do katalogu

LAPAN-TUBSAT

AktywnyNaukaSSO
NORAD 29709·PAYLOAD·🇮🇩 Indonesia

Wystrzelony Jan 10, 2007 z Satish Dhawan Space Centre

Loading…

Następne Przeloty (najbliższe 24 godziny)

TLE

ŚwieżeSource: Space-Track

Epoka: Sep 14, 2026, 14:37 UTC

1 29709U 07001A   26257.60939323 -.00000254  00000-0 -22439-4 0  9999
2 29709  98.1397 258.8807 0010780 254.2179 105.7847 14.86023679 64435

Śledź LAPAN-TUBSAT w czasie rzeczywistym z AllMySat

Download on the App Store